TimeCDT,TemperatureF,Dew PointF,Humidity,Sea Level PressureIn,VisibilityMPH,Wind Direction,Wind SpeedMPH,Gust SpeedMPH,PrecipitationIn,Events,Conditions,WindDirDegrees,DateUTC
12:53 AM,39.0,34.0,82,30.10,10.0,WSW,8.1,-,N/A,,Clear,240,2012-10-08 05:53:00
1:53 AM,36.0,33.1,89,30.09,10.0,West,5.8,-,N/A,,Clear,260,2012-10-08 06:53:00
2:53 AM,35.1,32.0,89,30.08,10.0,WSW,5.8,-,N/A,,Clear,240,2012-10-08 07:53:00
3:53 AM,35.1,32.0,89,30.06,9.0,WSW,6.9,-,N/A,,Clear,250,2012-10-08 08:53:00
4:53 AM,33.1,30.9,92,30.04,8.0,WSW,4.6,-,N/A,,Clear,250,2012-10-08 09:53:00
5:53 AM,33.1,30.9,92,30.02,10.0,WSW,4.6,-,N/A,,Clear,240,2012-10-08 10:53:00
6:53 AM,33.1,30.9,92,30.02,10.0,WSW,3.5,-,N/A,,Clear,250,2012-10-08 11:53:00
7:53 AM,32.0,30.0,92,30.03,9.0,WSW,3.5,-,N/A,,Clear,240,2012-10-08 12:53:00
8:53 AM,39.0,34.0,82,30.02,10.0,West,5.8,-,N/A,,Clear,260,2012-10-08 13:53:00
9:53 AM,46.9,36.0,66,30.01,10.0,West,5.8,-,N/A,,Clear,260,2012-10-08 14:53:00
10:53 AM,57.0,39.0,51,29.98,10.0,WSW,4.6,-,N/A,,Clear,240,2012-10-08 15:53:00
11:53 AM,66.0,34.0,30,29.95,10.0,WSW,11.5,-,N/A,,Clear,240,2012-10-08 16:53:00
12:53 PM,71.1,30.9,23,29.91,10.0,WSW,13.8,20.7,N/A,,Clear,250,2012-10-08 17:53:00
1:53 PM,73.0,27.0,18,29.88,10.0,SW,16.1,21.9,N/A,,Clear,220,2012-10-08 18:53:00
2:53 PM,75.0,27.0,17,29.85,10.0,SSW,15.0,23.0,N/A,,Clear,210,2012-10-08 19:53:00
3:53 PM,75.9,23.0,14,29.82,10.0,SW,12.7,20.7,N/A,,Clear,230,2012-10-08 20:53:00
4:53 PM,75.0,21.9,14,29.82,10.0,SSW,13.8,23.0,N/A,,Clear,200,2012-10-08 21:53:00
5:53 PM,73.0,23.0,15,29.81,10.0,SSW,13.8,18.4,N/A,,Clear,210,2012-10-08 22:53:00
6:53 PM,69.1,27.0,21,29.82,10.0,SSW,9.2,-,N/A,,Clear,200,2012-10-08 23:53:00
7:53 PM,62.1,30.0,30,29.83,10.0,SSW,8.1,-,N/A,,Clear,200,2012-10-09 00:53:00
8:53 PM,60.1,36.0,41,29.83,10.0,SSW,10.4,-,N/A,,Clear,200,2012-10-09 01:53:00
9:53 PM,57.9,37.9,47,29.83,10.0,SSW,12.7,19.6,N/A,,Clear,200,2012-10-09 02:53:00
10:53 PM,57.0,37.9,49,29.82,10.0,SSW,11.5,-,N/A,,Clear,210,2012-10-09 03:53:00
11:53 PM,55.0,37.9,53,29.81,10.0,SSW,12.7,18.4,N/A,,Clear,200,2012-10-09 04:53:00